Torna al catalogo

THORAD DELTA 1 DEB

AttivoSSO
NORAD 8158·DEBRIS·🇺🇸 United States

Lanciato Nov 15, 1974 da Vandenberg Space Force Base

Loading…

Prossimi Passaggi (prossime 24 ore)

TLE

AggiornatoSource: Space-Track

Epoca: Sep 14, 2026, 04:07 UTC

1 08158U 74089Y   26257.17203878  .00000009  00000-0  29681-3 0  9996
2 08158 101.3993 324.8363 0062026  40.9363 344.2182 12.61689907384952

Traccia THORAD DELTA 1 DEB in tempo reale con AllMySat

Download on the App Store